This is the latest recevied weather packets stored in our database for station/object W8BS. If no packets are shown the sender has not sent any weather packets the latest 10 day(s).
| Time | Temp. | Humidity | Pressure | Rain* | Wind** | Luminosity | Snow |
|---|---|---|---|---|---|---|---|
| 1777871907 | 6.67° C | 65% | 1014.3 hPa | 0 mm | - | 0 W/m² | - |
| 1777871603 | 6.67° C | 66% | 1014.4 hPa | 0 mm | - | 0 W/m² | - |
| 1777871300 | 6.67° C | 64% | 1014.3 hPa | 0 mm | - | 0 W/m² | - |
| 1777870997 | 7.22° C | 72% | 1014.2 hPa | 0 mm | - | 0 W/m² | - |
| 1777870689 | 7.22° C | 70% | 1014.6 hPa | 0 mm | - | 0 W/m² | - |
| 1777870389 | 7.22° C | 67% | 1014.6 hPa | 0 mm | - | 0 W/m² | - |
| 1777870086 | 7.22° C | 66% | 1014.5 hPa | 0 mm | - | 0 W/m² | - |
| 1777869784 | 7.78° C | 67% | 1014.3 hPa | 0 mm | - | 0 W/m² | - |
| 1777869481 | 7.78° C | 64% | 1014.4 hPa | 0 mm | - | 0 W/m² | - |
| 1777869177 | 7.78° C | 61% | 1014.6 hPa | 0 mm | - | 0 W/m² | - |
| 1777868875 | 7.78° C | 63% | 1014.2 hPa | 0 mm | - | 0 W/m² | - |
| 1777868571 | 7.78° C | 62% | 1014.6 hPa | 0 mm | - | 0 W/m² | - |
| 1777868268 | 7.78° C | 65% | 1014.6 hPa | 0 mm | - | 0 W/m² | - |
| 1777867964 | 7.78° C | 65% | 1014.4 hPa | 0 mm | - | 0 W/m² | - |
| 1777867660 | 7.78° C | 63% | 1014.5 hPa | 0 mm | - | 0 W/m² | - |
| 1777867358 | 7.78° C | 62% | 1014.4 hPa | 0 mm | - | 0 W/m² | - |
| 1777867053 | 7.78° C | 65% | 1014.4 hPa | 0 mm | - | 0 W/m² | - |
| 1777866751 | 7.78° C | 65% | 1014.7 hPa | 0 mm | - | 0 W/m² | - |
| 1777866449 | 7.78° C | 64% | 1014.6 hPa | 0 mm | - | 0 W/m² | - |
| 1777866145 | 7.78° C | 64% | 1014.5 hPa | 0 mm | - | 0 W/m² | - |
| 1777865843 | 7.78° C | 61% | 1014.6 hPa | 0 mm | - | 0 W/m² | - |
| 1777865540 | 7.78° C | 67% | 1014.5 hPa | 0 mm | - | 0 W/m² | - |
| 1777865237 | 7.78° C | 63% | 1014.6 hPa | 0 mm | - | 0 W/m² | - |
| 1777864934 | 7.78° C | 65% | 1014.5 hPa | 0 mm | - | 0 W/m² | - |
| 1777864631 | 7.78° C | 64% | 1014.8 hPa | 0 mm | - | 0 W/m² | - |
* Rain latest hour (hover to see other rain measurements)
** Current wind speed in m/s (hover to see current wind gust speed)